QPF
0.00 0.00 0.00 0.00 0.00 0.00 0.00 0.00 0.01 0.01 0.01 0.02 0.02 0.02 0.02 0.01 0.01 0.02 0.04 0.06 0.06 0.04 0.03 0.04 0.02 0.01 0.01 0.00 0.00 0.00 0.01 0.01 0.01 0.01 0.01 0.02 0.02 0.02 0.03 0.03 0.04 0.03 0.03
0.00 0.00 0.00 0.00 0.00 0.00 0.00 0.00 0.00 0.00 0.01 0.01 0.02 0.02 0.01 0.01 0.01 0.01 0.02 0.04 0.06 0.04 0.02 0.01 0.02 0.01 0.01 0.00 0.00 0.00 0.00 0.01 0.01 0.01 0.01 0.01 0.01 0.02 0.02 0.04 0.04 0.04 0.04
0.00 0.00 0.00 0.00 0.00 0.00 0.00 0.00 0.00 0.00 0.01 0.01 0.02 0.03 0.02 0.01 0.01 0.01 0.01 0.02 0.04 0.04 0.02 0.01 0.01 0.01 0.00 0.00 0.00 0.00 0.00 0.01 0.01 0.01 0.01 0.01 0.01 0.01 0.02 0.03 0.04 0.04 0.04
0.00 0.00 0.00 0.00 0.00 0.00 0.00 0.00 0.00 0.01 0.01 0.02 0.02 0.03 0.03 0.02 0.01 0.01 0.01 0.01 0.02 0.03 0.02 0.01 0.01 0.01 0.01 0.00 0.00 0.00 0.00 0.00 0.01 0.01 0.01 0.01 0.01 0.01 0.02 0.02 0.04 0.04 0.04
0.00 0.00 0.00 0.00 0.00 0.00 0.00 0.00 0.01 0.01 0.02 0.02 0.03 0.03 0.04 0.02 0.01 0.01 0.01 0.01 0.01 0.02 0.02 0.01 0.01 0.01 0.01 0.01 0.00 0.00 0.00 0.00 0.01 0.01 0.01 0.01 0.01 0.01 0.02 0.03 0.04 0.04 0.04
0.00 0.00 0.00 0.01 0.00 0.00 0.00 0.01 0.01 0.02 0.02 0.02 0.03 0.03 0.04 0.03 0.02 0.01 0.01 0.01 0.01 0.01 0.01 0.01 0.01 0.01 0.01 0.00 0.00 0.00 0.00 0.00 0.00 0.01 0.01 0.01 0.02 0.02 0.02 0.02 0.03 0.04 0.03
0.00 0.00 0.01 0.01 0.01 0.00 0.00 0.01 0.01 0.02 0.02 0.03 0.03 0.04 0.04 0.04 0.03 0.02 0.01 0.01 0.01 0.01 0.01 0.01 0.01 0.01 0.01 0.00 0.00 0.00 0.00 0.00 0.01 0.01 0.01 0.01 0.02 0.02 0.02 0.03 0.02 0.02 0.02
0.00 0.00 0.01 0.01 0.01 0.00 0.00 0.01 0.02 0.02 0.02 0.03 0.03 0.04 0.04 0.04 0.04 0.03 0.02 0.01 0.01 0.01 0.00 0.01 0.01 0.01 0.01 0.01 0.00 0.00 0.00 0.00 0.00 0.01 0.01 0.01 0.02 0.02 0.02 0.03 0.03 0.03 0.02
0.00 0.01 0.01 0.01 0.01 0.01 0.00 0.01 0.01 0.02 0.02 0.03 0.03 0.04 0.04 0.04 0.04 0.03 0.03 0.03 0.02 0.01 0.01 0.01 0.01 0.01 0.01 0.01 0.01 0.01 0.00 0.00 0.00 0.01 0.01 0.01 0.01 0.01 0.01 0.02 0.02 0.02 0.02
0.01 0.02 0.02 0.02 0.02 0.01 0.01 0.01 0.01 0.01 0.02 0.03 0.03 0.04 0.04 0.04 0.04 0.03 0.03 0.03 0.03 0.02 0.02 0.01 0.01 0.01 0.01 0.01 0.01 0.01 0.00 0.00 0.00 0.00 0.01 0.01 0.01 0.01 0.01 0.01 0.01 0.02 0.02
0.02 0.03 0.04 0.05 0.05 0.03 0.02 0.02 0.02 0.02 0.02 0.02 0.03 0.04 0.04 0.05 0.05 0.04 0.03 0.03 0.03 0.03 0.03 0.02 0.01 0.01 0.01 0.01 0.01 0.01 0.00 0.00 0.00 0.00 0.01 0.01 0.01 0.01 0.01 0.01 0.01 0.01 0.02
0.02 0.04 0.06 0.07 0.08 0.08 0.05 0.04 0.03 0.03 0.03 0.03 0.03 0.03 0.04 0.04 0.04 0.04 0.04 0.03 0.03 0.03 0.03 0.03 0.02 0.02 0.02 0.02 0.01 0.01 0.00 0.00 0.00 0.00 0.00 0.00 0.00 0.00 0.01 0.01 0.01 0.01 0.01
0.03 0.04 0.06 0.08 0.08 0.09 0.08 0.07 0.05 0.05 0.04 0.04 0.04 0.04 0.04 0.04 0.04 0.04 0.05 0.04 0.04 0.03 0.03 0.03 0.02 0.02 0.02 0.02 0.01 0.01 0.01 0.01 0.01 0.01 0.00 0.00 0.00 0.01 0.01 0.01 0.01 0.01 0.01
0.04 0.04 0.06 0.08 0.08 0.07 0.07 0.06 0.06 0.04 0.03 0.04 0.04 0.04 0.05 0.05 0.04 0.04 0.04 0.04 0.04 0.03 0.03 0.02 0.02 0.02 0.03 0.02 0.01 0.01 0.01 0.01 0.01 0.01 0.01 0.01 0.01 0.01 0.01 0.01 0.01 0.02 0.02
0.03 0.04 0.05 0.07 0.08 0.07 0.07 0.06 0.05 0.05 0.04 0.04 0.04 0.04 0.04 0.05 0.05 0.05 0.04 0.05 0.04 0.03 0.03 0.02 0.02 0.02 0.02 0.02 0.02 0.02 0.02 0.02 0.02 0.02 0.02 0.02 0.02 0.02 0.01 0.01 0.01 0.02 0.02
0.04 0.04 0.06 0.07 0.06 0.07 0.07 0.06 0.05 0.05 0.05 0.05 0.05 0.05 0.05 0.05 0.05 0.05 0.05 0.05 0.05 0.04 0.04 0.03 0.02 0.02 0.02 0.03 0.03 0.03 0.03 0.02 0.02 0.02 0.02 0.03 0.02 0.02 0.01 0.01 0.01 0.01 0.02
0.04 0.05 0.07 0.07 0.07 0.06 0.05 0.06 0.05 0.05 0.05 0.05 0.05 0.06 0.06 0.06 0.06 0.05 0.05 0.05 0.05 0.05 0.05 0.04 0.03 0.02 0.02 0.03 0.03 0.03 0.02 0.02 0.02 0.02 0.02 0.03 0.03 0.02 0.01 0.01 0.02 0.01 0.02
0.04 0.05 0.06 0.06 0.07 0.05 0.04 0.04 0.04 0.04 0.04 0.05 0.06 0.06 0.07 0.07 0.06 0.06 0.05 0.04 0.04 0.05 0.05 0.04 0.03 0.03 0.02 0.03 0.03 0.03 0.02 0.02 0.02 0.02 0.02 0.03 0.03 0.03 0.02 0.02 0.02 0.02 0.02
0.05 0.05 0.05 0.05 0.06 0.05 0.04 0.03 0.03 0.03 0.03 0.05 0.06 0.07 0.07 0.07 0.07 0.07 0.06 0.05 0.04 0.04 0.04 0.04 0.04 0.03 0.03 0.03 0.03 0.03 0.02 0.02 0.02 0.02 0.02 0.02 0.03 0.04 0.03 0.02 0.02 0.03 0.02
0.06 0.05 0.05 0.04 0.04 0.04 0.03 0.03 0.03 0.03 0.03 0.04 0.05 0.06 0.07 0.07 0.08 0.08 0.07 0.07 0.06 0.05 0.04 0.04 0.03 0.03 0.02 0.02 0.02 0.03 0.02 0.02 0.02 0.02 0.02 0.03 0.03 0.04 0.03 0.02 0.01 0.02 0.02
0.06 0.06 0.05 0.04 0.06 0.05 0.04 0.03 0.03 0.04 0.04 0.04 0.04 0.05 0.06 0.07 0.07 0.08 0.07 0.07 0.06 0.06 0.06 0.04 0.03 0.03 0.03 0.03 0.03 0.03 0.02 0.02 0.02 0.02 0.02 0.03 0.03 0.03 0.04 0.03 0.02 0.02 0.02
0.06 0.06 0.04 0.04 0.05 0.05 0.04 0.03 0.03 0.03 0.04 0.04 0.04 0.04 0.04 0.04 0.05 0.06 0.06 0.06 0.06 0.06 0.06 0.05 0.04 0.03 0.03 0.03 0.03 0.03 0.02 0.02 0.02 0.02 0.01 0.02 0.02 0.02 0.03 0.03 0.04 0.03 0.02
0.06 0.05 0.03 0.03 0.03 0.04 0.04 0.03 0.03 0.03 0.03 0.03 0.03 0.03 0.03 0.03 0.04 0.05 0.05 0.05 0.05 0.04 0.04 0.04 0.04 0.03 0.02 0.02 0.03 0.03 0.02 0.02 0.02 0.02 0.01 0.01 0.01 0.02 0.02 0.02 0.03 0.03 0.02
0.05 0.05 0.04 0.03 0.03 0.04 0.04 0.04 0.04 0.04 0.05 0.04 0.04 0.04 0.04 0.04 0.04 0.05 0.04 0.04 0.04 0.03 0.03 0.04 0.03 0.02 0.02 0.02 0.02 0.02 0.02 0.02 0.01 0.01 0.01 0.01 0.01 0.01 0.01 0.02 0.02 0.02 0.02
0.05 0.05 0.05 0.05 0.04 0.04 0.04 0.04 0.04 0.04 0.05 0.05 0.05 0.04 0.05 0.04 0.04 0.04 0.04 0.03 0.03 0.03 0.03 0.03 0.03 0.03 0.02 0.02 0.02 0.02 0.02 0.02 0.02 0.01 0.01 0.01 0.01 0.01 0.01 0.01 0.01 0.01 0.01
0.03 0.03 0.03 0.03 0.03 0.03 0.04 0.03 0.03 0.03 0.04 0.04 0.04 0.04 0.04 0.04 0.04 0.04 0.04 0.03 0.03 0.03 0.02 0.02 0.03 0.03 0.03 0.02 0.02 0.02 0.02 0.02 0.02 0.02 0.02 0.01 0.01 0.01 0.01 0.01 0.01 0.01 0.01
MSLP
1004.00 1004.45 1004.98 1005.57 1006.18 1006.81 1007.46 1008.13 1008.83 1009.56 1010.33 1011.11 1011.91 1012.68 1013.42 1014.10 1014.72 1015.26 1015.75 1016.19 1016.60 1017.02 1017.45 1017.92 1018.43 1018.99 1019.60 1020.27 1020.98 1021.73 1022.51 1023.29 1024.04 1024.75 1025.39 1025.93 1026.35 1026.66 1026.86 1026.96 1027.01 1027.02 1027.04
1003.38 1003.83 1004.35 1004.94 1005.56 1006.23 1006.93 1007.67 1008.46 1009.28 1010.13 1010.98 1011.81 1012.61 1013.35 1014.01 1014.60 1015.13 1015.61 1016.06 1016.50 1016.95 1017.41 1017.89 1018.41 1018.95 1019.53 1020.16 1020.83 1021.55 1022.31 1023.10 1023.90 1024.67 1025.38 1026.00 1026.50 1026.88 1027.12 1027.27 1027.34 1027.36 1027.38
1002.85 1003.28 1003.80 1004.37 1005.01 1005.69 1006.43 1007.24 1008.09 1008.99 1009.91 1010.82 1011.69 1012.49 1013.22 1013.86 1014.43 1014.94 1015.42 1015.88 1016.34 1016.81 1017.30 1017.80 1018.32 1018.85 1019.40 1019.98 1020.60 1021.28 1022.01 1022.79 1023.60 1024.40 1025.16 1025.83 1026.40 1026.84 1027.14 1027.34 1027.45 1027.51 1027.56
1002.41 1002.84 1003.34 1003.90 1004.53 1005.22 1005.99 1006.83 1007.74 1008.70 1009.67 1010.62 1011.51 1012.33 1013.05 1013.67 1014.21 1014.71 1015.17 1015.64 1016.11 1016.61 1017.13 1017.65 1018.18 1018.70 1019.23 1019.77 1020.35 1020.98 1021.67 1022.41 1023.20 1024.00 1024.77 1025.47 1026.07 1026.56 1026.91 1027.15 1027.31 1027.43 1027.52
1002.05 1002.50 1003.00 1003.55 1004.16 1004.85 1005.61 1006.47 1007.40 1008.39 1009.39 1010.37 1011.29 1012.11 1012.82 1013.43 1013.96 1014.43 1014.89 1015.35 1015.85 1016.37 1016.91 1017.46 1018.01 1018.54 1019.06 1019.58 1020.13 1020.70 1021.34 1022.03 1022.77 1023.53 1024.28 1024.97 1025.57 1026.07 1026.46 1026.75 1026.96 1027.13 1027.29
1001.80 1002.28 1002.79 1003.33 1003.92 1004.57 1005.31 1006.15 1007.08 1008.07 1009.09 1010.08 1011.01 1011.84 1012.54 1013.14 1013.65 1014.12 1014.56 1015.03 1015.53 1016.07 1016.64 1017.22 1017.80 1018.35 1018.88 1019.40 1019.92 1020.46 1021.05 1021.68 1022.35 1023.04 1023.73 1024.37 1024.95 1025.45 1025.85 1026.17 1026.43 1026.66 1026.89
1001.67 1002.20 1002.73 1003.26 1003.81 1004.42 1005.11 1005.89 1006.78 1007.75 1008.75 1009.74 1010.67 1011.50 1012.21 1012.80 1013.31 1013.76 1014.20 1014.66 1015.16 1015.71 1016.30 1016.91 1017.52 1018.11 1018.66 1019.19 1019.71 1020.23 1020.77 1021.33 1021.93 1022.55 1023.16 1023.74 1024.27 1024.74 1025.14 1025.49 1025.81 1026.10 1026.40
1001.71 1002.29 1002.84 1003.36 1003.86 1004.39 1005.00 1005.71 1006.52 1007.43 1008.39 1009.36 1010.27 1011.10 1011.81 1012.41 1012.92 1013.36 1013.79 1014.25 1014.75 1015.30 1015.90 1016.53 1017.16 1017.78 1018.37 1018.92 1019.44 1019.95 1020.46 1020.98 1021.51 1022.05 1022.59 1023.10 1023.59 1024.03 1024.43 1024.80 1025.16 1025.52 1025.89
1001.95 1002.59 1003.14 1003.62 1004.06 1004.50 1005.00 1005.59 1006.31 1007.13 1008.02 1008.94 1009.84 1010.65 1011.37 1011.97 1012.49 1012.93 1013.36 1013.80 1014.28 1014.83 1015.42 1016.06 1016.71 1017.35 1017.97 1018.55 1019.09 1019.61 1020.10 1020.59 1021.07 1021.55 1022.03 1022.49 1022.93 1023.36 1023.76 1024.16 1024.57 1024.99 1025.42
1002.44 1003.10 1003.63 1004.05 1004.40 1004.72 1005.09 1005.55 1006.14 1006.85 1007.66 1008.52 1009.38 1010.18 1010.90 1011.51 1012.03 1012.48 1012.90 1013.33 1013.80 1014.32 1014.90 1015.53 1016.19 1016.84 1017.48 1018.08 1018.64 1019.17 1019.66 1020.13 1020.59 1021.04 1021.48 1021.91 1022.34 1022.76 1023.19 1023.62 1024.07 1024.54 1025.03
1003.20 1003.83 1004.30 1004.64 1004.87 1005.06 1005.29 1005.60 1006.05 1006.63 1007.34 1008.13 1008.94 1009.72 1010.43 1011.06 1011.59 1012.05 1012.47 1012.89 1013.33 1013.83 1014.39 1014.99 1015.63 1016.28 1016.92 1017.53 1018.11 1018.65 1019.15 1019.63 1020.08 1020.52 1020.96 1021.39 1021.82 1022.25 1022.70 1023.17 1023.66 1024.17 1024.69
1004.21 1004.75 1005.12 1005.34 1005.44 1005.49 1005.57 1005.73 1006.03 1006.49 1007.09 1007.79 1008.55 1009.30 1010.01 1010.63 1011.18 1011.65 1012.08 1012.50 1012.93 1013.41 1013.93 1014.50 1015.11 1015.74 1016.37 1016.98 1017.56 1018.11 1018.62 1019.11 1019.57 1020.02 1020.46 1020.91 1021.36 1021.81 1022.29 1022.79 1023.30 1023.84 1024.38
1005.41 1005.81 1006.05 1006.12 1006.09 1006.00 1005.93 1005.95 1006.12 1006.45 1006.94 1007.55 1008.24 1008.96 1009.65 1010.28 1010.84 1011.33 1011.77 1012.20 1012.62 1013.08 1013.58 1014.12 1014.69 1015.29 1015.89 1016.49 1017.06 1017.60 1018.12 1018.61 1019.08 1019.54 1020.00 1020.46 1020.93 1021.41 1021.90 1022.41 1022.94 1023.48 1024.02
1006.73 1006.96 1007.03 1006.97 1006.79 1006.57 1006.38 1006.28 1006.33 1006.54 1006.92 1007.44 1008.06 1008.72 1009.38 1010.01 1010.57 1011.08 1011.55 1011.98 1012.42 1012.87 1013.35 1013.86 1014.41 1014.97 1015.54 1016.10 1016.64 1017.17 1017.67 1018.15 1018.63 1019.09 1019.56 1020.02 1020.50 1020.98 1021.48 1021.98 1022.50 1023.02 1023.55
1008.11 1008.14 1008.05 1007.84 1007.55 1007.22 1006.93 1006.73 1006.67 1006.78 1007.06 1007.48 1008.01 1008.60 1009.22 1009.82 1010.39 1010.91 1011.39 1011.85 1012.31 1012.77 1013.24 1013.74 1014.25 1014.78 1015.30 1015.82 1016.33 1016.82 1017.29 1017.76 1018.21 1018.66 1019.12 1019.57 1020.03 1020.50 1020.98 1021.46 1021.94 1022.43 1022.92
1009.47 1009.32 1009.07 1008.74 1008.36 1007.95 1007.59 1007.31 1007.17 1007.18 1007.36 1007.67 1008.10 1008.61 1009.16 1009.72 1010.27 1010.79 1011.29 1011.77 1012.25 1012.72 1013.20 1013.69 1014.19 1014.68 1015.17 1015.65 1016.10 1016.55 1016.98 1017.40 1017.82 1018.24 1018.66 1019.09 1019.52 1019.95 1020.38 1020.82 1021.26 1021.71 1022.16
1010.78 1010.47 1010.10 1009.68 1009.23 1008.78 1008.36 1008.03 1007.82 1007.75 1007.82 1008.02 1008.34 1008.74 1009.21 1009.69 1010.20 1010.70 1011.20 1011.70 1012.19 1012.69 1013.18 1013.67 1014.16 1014.62 1015.07 1015.50 1015.91 1016.30 1016.68 1017.05 1017.42 1017.80 1018.17 1018.56 1018.94 1019.33 1019.71 1020.10 1020.49 1020.89 1021.30
1012.02 1011.59 1011.14 1010.67 1010.18 1009.70 1009.26 1008.89 1008.63 1008.47 1008.44 1008.53 1008.72 1009.00 1009.34 1009.74 1010.17 1010.63 1011.11 1011.60 1012.11 1012.61 1013.12 1013.61 1014.08 1014.53 1014.95 1015.34 1015.70 1016.04 1016.36 1016.68 1017.01 1017.33 1017.66 1018.00 1018.34 1018.68 1019.01 1019.36 1019.70 1020.07 1020.45
1013.20 1012.70 1012.20 1011.70 1011.20 1010.72 1010.27 1009.88 1009.56 1009.33 1009.20 1009.17 1009.22 1009.36 1009.58 1009.86 1010.20 1010.59 1011.02 1011.49 1011.98 1012.48 1012.98 1013.47 1013.93 1014.35 1014.74 1015.09 1015.41 1015.71 1015.99 1016.27 1016.55 1016.84 1017.14 1017.44 1017.75 1018.05 1018.36 1018.67 1019.00 1019.34 1019.71
1014.34 1013.81 1013.29 1012.78 1012.29 1011.81 1011.36 1010.95 1010.59 1010.29 1010.06 1009.91 1009.83 1009.84 1009.91 1010.07 1010.30 1010.60 1010.97 1011.38 1011.83 1012.31 1012.78 1013.25 1013.68 1014.08 1014.44 1014.75 1015.04 1015.30 1015.55 1015.81 1016.07 1016.34 1016.62 1016.92 1017.21 1017.51 1017.81 1018.12 1018.43 1018.77 1019.15
1015.46 1014.91 1014.39 1013.89 1013.40 1012.93 1012.48 1012.05 1011.66 1011.31 1011.00 1010.74 1010.55 1010.42 1010.37 1010.40 1010.51 1010.71 1010.98 1011.32 1011.71 1012.13 1012.56 1012.98 1013.37 1013.73 1014.05 1014.33 1014.58 1014.82 1015.06 1015.31 1015.57 1015.85 1016.14 1016.45 1016.76 1017.08 1017.40 1017.72 1018.05 1018.40 1018.79
1016.55 1016.01 1015.49 1014.99 1014.51 1014.05 1013.59 1013.16 1012.74 1012.34 1011.97 1011.63 1011.34 1011.11 1010.94 1010.86 1010.86 1010.95 1011.13 1011.37 1011.68 1012.02 1012.37 1012.72 1013.05 1013.35 1013.61 1013.85 1014.08 1014.30 1014.53 1014.78 1015.06 1015.37 1015.69 1016.04 1016.39 1016.75 1017.10 1017.46 1017.82 1018.20 1018.61
1017.60 1017.07 1016.55 1016.05 1015.57 1015.11 1014.65 1014.21 1013.77 1013.35 1012.94 1012.55 1012.20 1011.89 1011.64 1011.46 1011.37 1011.36 1011.43 1011.57 1011.77 1012.01 1012.26 1012.52 1012.76 1012.98 1013.19 1013.38 1013.57 1013.77 1013.99 1014.25 1014.56 1014.89 1015.26 1015.66 1016.06 1016.47 1016.87 1017.27 1017.67 1018.09 1018.52
1018.61 1018.07 1017.55 1017.04 1016.56 1016.09 1015.63 1015.19 1014.75 1014.32 1013.89 1013.48 1013.09 1012.74 1012.43 1012.19 1012.01 1011.91 1011.88 1011.92 1012.01 1012.13 1012.27 1012.42 1012.56 1012.69 1012.81 1012.94 1013.08 1013.25 1013.47 1013.73 1014.05 1014.42 1014.83 1015.27 1015.73 1016.18 1016.63 1017.08 1017.52 1017.96 1018.41
1019.55 1019.01 1018.47 1017.95 1017.46 1016.98 1016.52 1016.08 1015.65 1015.22 1014.80 1014.39 1014.00 1013.62 1013.29 1012.99 1012.76 1012.58 1012.47 1012.40 1012.38 1012.38 1012.41 1012.44 1012.47 1012.49 1012.53 1012.58 1012.66 1012.79 1012.98 1013.24 1013.56 1013.94 1014.38 1014.85 1015.33 1015.82 1016.31 1016.79 1017.26 1017.73 1018.20
1020.43 1019.87 1019.33 1018.79 1018.28 1017.80 1017.34 1016.90 1016.48 1016.06 1015.66 1015.26 1014.87 1014.50 1014.14 1013.83 1013.55 1013.32 1013.12 1012.97 1012.85 1012.74 1012.65 1012.57 1012.49 1012.41 1012.35 1012.32 1012.34 1012.41 1012.56 1012.78 1013.09 1013.46 1013.90 1014.37 1014.87 1015.37 1015.88 1016.37 1016.86 1017.34 1017.82
Thickness
5607 5608 5609 5609 5609 5608 5609 5609 5610 5610 5610 5609 5609 5609 5608 5609 5609 5610 5610 5610 5610 5610 5609 5609 5609 5608 5607 5607 5607 5606 5605 5603 5602 5600 5597 5598 5600 5600 5601 5602 5602 5602 5603
5596 5597 5598 5598 5598 5598 5599 5600 5601 5601 5601 5601 5602 5601 5600 5600 5600 5601 5601 5602 5601 5601 5601 5601 5600 5600 5598 5598 5598 5597 5596 5594 5594 5591 5589 5586 5586 5588 5591 5591 5592 5592 5593
5584 5585 5587 5588 5588 5588 5590 5592 5592 5593 5592 5592 5592 5591 5590 5590 5590 5591 5592 5593 5593 5592 5592 5591 5591 5591 5590 5590 5589 5589 5588 5585 5584 5585 5583 5579 5578 5577 5578 5580 5582 5582 5582
5575 5575 5576 5577 5578 5579 5580 5582 5583 5583 5584 5584 5583 5583 5583 5583 5584 5583 5583 5584 5584 5584 5583 5582 5582 5583 5582 5582 5582 5581 5580 5578 5576 5575 5576 5576 5575 5570 5567 5568 5570 5571 5572
5564 5565 5566 5567 5568 5570 5570 5571 5573 5573 5574 5575 5576 5575 5575 5575 5575 5575 5574 5574 5575 5574 5574 5574 5573 5574 5574 5574 5573 5573 5572 5571 5569 5567 5566 5566 5566 5565 5561 5558 5558 5559 5561
5552 5554 5555 5556 5557 5558 5560 5561 5562 5563 5564 5565 5566 5567 5567 5567 5567 5566 5565 5565 5566 5566 5566 5566 5566 5566 5567 5567 5566 5565 5564 5563 5562 5560 5559 5558 5556 5555 5554 5551 5548 5548 5550
5538 5539 5541 5543 5544 5546 5548 5551 5552 5553 5554 5556 5556 5558 5558 5559 5559 5559 5558 5557 5557 5558 5558 5559 5559 5559 5560 5559 5558 5557 5556 5555 5554 5552 5551 5550 5549 5548 5547 5544 5541 5539 5539
5525 5526 5527 5530 5532 5534 5537 5539 5541 5543 5544 5546 5547 5549 5550 5550 5551 5551 5551 5551 5551 5551 5551 5551 5552 5552 5552 5551 5550 5549 5548 5547 5546 5544 5542 5541 5539 5539 5538 5536 5533 5529 5528
5511 5512 5514 5517 5520 5522 5525 5528 5530 5532 5534 5536 5538 5540 5542 5543 5543 5543 5543 5543 5543 5543 5544 5544 5544 5544 5544 5543 5542 5541 5540 5539 5537 5536 5534 5532 5531 5530 5530 5528 5527 5523 5519
5496 5498 5501 5504 5507 5511 5514 5516 5518 5521 5524 5526 5529 5532 5533 5534 5534 5535 5535 5535 5536 5536 5537 5536 5536 5536 5536 5535 5535 5533 5532 5531 5529 5527 5525 5524 5522 5521 5520 5519 5517 5516 5514
5482 5484 5487 5490 5495 5498 5502 5504 5507 5510 5513 5516 5519 5522 5524 5525 5526 5526 5527 5528 5528 5529 5529 5529 5529 5528 5528 5527 5527 5525 5524 5523 5521 5519 5518 5516 5514 5512 5510 5509 5508 5506 5505
5467 5470 5474 5477 5482 5485 5489 5492 5495 5499 5502 5506 5508 5511 5513 5515 5516 5517 5519 5519 5520 5520 5521 5521 5520 5520 5520 5519 5518 5517 5516 5514 5513 5511 5509 5507 5505 5503 5501 5499 5498 5497 5496
5453 5457 5461 5464 5469 5473 5477 5481 5484 5488 5492 5496 5498 5501 5504 5505 5506 5508 5509 5510 5510 5511 5512 5512 5512 5512 5511 5510 5510 5509 5507 5506 5505 5503 5501 5499 5497 5494 5491 5489 5488 5487 5486
5439 5444 5448 5452 5457 5461 5465 5469 5473 5477 5481 5485 5488 5490 5493 5495 5496 5498 5499 5500 5501 5502 5503 5503 5503 5502 5502 5502 5501 5499 5498 5497 5496 5495 5493 5491 5489 5486 5483 5480 5478 5476 5474
5427 5431 5435 5439 5445 5449 5453 5457 5461 5465 5469 5473 5475 5478 5482 5485 5486 5488 5489 5490 5491 5492 5493 5493 5493 5493 5493 5493 5492 5490 5489 5488 5486 5485 5484 5481 5479 5477 5474 5472 5469 5466 5463
5414 5420 5424 5428 5432 5437 5442 5446 5449 5453 5458 5461 5464 5467 5470 5473 5475 5477 5479 5480 5481 5482 5483 5483 5483 5483 5484 5483 5482 5481 5480 5479 5477 5476 5474 5472 5469 5467 5465 5462 5460 5457 5454
5402 5408 5412 5416 5421 5426 5431 5435 5439 5444 5447 5450 5452 5456 5459 5462 5464 5467 5468 5470 5471 5472 5472 5472 5473 5473 5474 5473 5473 5472 5471 5470 5468 5467 5465 5463 5461 5458 5456 5453 5450 5447 5444
5391 5396 5400 5405 5410 5415 5420 5425 5429 5433 5436 5439 5441 5444 5448 5451 5453 5455 5457 5459 5461 5462 5462 5462 5463 5463 5464 5464 5463 5462 5461 5460 5458 5457 5455 5454 5452 5450 5447 5444 5440 5437 5435
5380 5385 5390 5394 5399 5404 5409 5414 5418 5422 5424 5427 5429 5432 5436 5439 5442 5444 5446 5448 5450 5451 5451 5452 5452 5453 5453 5454 5453 5451 5450 5449 5448 5447 5446 5445 5443 5441 5439 5436 5432 5428 5425
5372 5377 5381 5384 5388 5393 5398 5403 5406 5409 5412 5415 5417 5420 5424 5427 5430 5432 5435 5437 5439 5440 5441 5441 5441 5442 5443 5443 5443 5442 5440 5439 5438 5437 5436 5435 5434 5432 5429 5427 5424 5420 5416
5362 5367 5371 5374 5377 5382 5386 5390 5393 5396 5400 5403 5406 5409 5412 5415 5418 5421 5423 5425 5427 5428 5429 5429 5430 5431 5432 5432 5433 5432 5431 5429 5428 5427 5426 5425 5424 5423 5421 5417 5414 5412 5408
5352 5356 5360 5363 5367 5371 5375 5378 5381 5384 5389 5392 5395 5398 5401 5404 5407 5410 5412 5414 5415 5417 5417 5418 5419 5420 5421 5422 5422 5422 5421 5420 5418 5417 5416 5415 5414 5413 5411 5408 5405 5402 5398
5341 5345 5349 5353 5356 5360 5364 5367 5370 5374 5378 5382 5385 5387 5390 5392 5395 5398 5400 5402 5404 5406 5406 5407 5408 5409 5410 5411 5411 5411 5410 5410 5409 5408 5407 5406 5404 5403 5400 5398 5395 5392 5388
5331 5335 5339 5342 5345 5349 5352 5356 5359 5363 5368 5371 5374 5376 5379 5382 5384 5386 5389 5390 5392 5394 5395 5395 5396 5396 5397 5398 5399 5399 5399 5399 5398 5397 5396 5395 5393 5392 5390 5387 5384 5382 5379
5320 5324 5327 5330 5334 5337 5341 5345 5348 5353 5357 5360 5363 5365 5368 5371 5373 5375 5376 5379 5381 5383 5384 5385 5386 5386 5386 5388 5389 5389 5389 5388 5388 5387 5385 5384 5382 5380 5378 5376 5374 5371 5369
5311 5314 5317 5320 5323 5326 5330 5334 5338 5342 5346 5349 5352 5354 5357 5360 5362 5364 5366 5368 5370 5372 5374 5375 5375 5376 5377 5378 5379 5379 5380 5379 5379 5378 5376 5374 5372 5370 5368 5366 5364 5361 5359